TimeEST,TemperatureF,Dew PointF,Humidity,Sea Level PressureIn,VisibilityMPH,Wind Direction,Wind SpeedMPH,Gust SpeedMPH,PrecipitationIn,Events,Conditions,WindDirDegrees,DateUTC
12:56 AM,28.0,26.1,92,30.02,5.0,Calm,Calm,-,N/A,,Mostly Cloudy,0,2013-02-15 05:56:00
1:56 AM,28.9,28.0,96,30.02,5.0,Calm,Calm,-,N/A,,Scattered Clouds,0,2013-02-15 06:56:00
2:08 AM,26.6,26.6,100,30.02,5.0,Calm,Calm,-,N/A,,Mostly Cloudy,0,2013-02-15 07:08:00
2:52 AM,33.8,33.8,100,30.01,4.0,WSW,5.8,-,N/A,,Overcast,240,2013-02-15 07:52:00
2:56 AM,35.1,35.1,100,30.01,4.0,SW,4.6,-,N/A,,Overcast,230,2013-02-15 07:56:00
3:19 AM,33.8,33.8,100,30.00,4.0,SSW,5.8,-,N/A,,Partly Cloudy,210,2013-02-15 08:19:00
3:47 AM,33.8,33.8,100,30.00,1.8,SW,3.5,-,N/A,,Clear,230,2013-02-15 08:47:00
3:56 AM,27.0,27.0,100,30.01,1.0,SW,3.5,-,N/A,,Clear,230,2013-02-15 08:56:00
4:17 AM,26.6,26.6,100,30.01,2.5,Calm,Calm,-,N/A,,Clear,0,2013-02-15 09:17:00
4:34 AM,28.4,28.4,100,30.00,1.8,SSW,4.6,-,N/A,,Clear,210,2013-02-15 09:34:00
4:56 AM,27.0,27.0,100,30.01,1.5,SW,3.5,-,N/A,,Clear,230,2013-02-15 09:56:00
5:08 AM,24.8,24.8,100,30.02,0.8,West,4.6,-,N/A,,Clear,270,2013-02-15 10:08:00
5:16 AM,26.6,26.6,100,30.02,1.0,WSW,4.6,-,N/A,,Clear,250,2013-02-15 10:16:00
5:49 AM,33.8,33.8,100,30.02,2.5,SSW,4.6,-,N/A,,Clear,210,2013-02-15 10:49:00
5:56 AM,35.1,35.1,100,30.02,3.0,SSW,5.8,-,N/A,,Clear,210,2013-02-15 10:56:00
6:38 AM,35.6,35.6,100,30.02,2.5,WSW,3.5,-,N/A,,Partly Cloudy,240,2013-02-15 11:38:00
6:51 AM,37.4,37.4,100,30.02,1.8,SW,3.5,-,N/A,,Scattered Clouds,230,2013-02-15 11:51:00
6:56 AM,36.0,36.0,100,30.01,1.8,SW,4.6,-,N/A,,Partly Cloudy,230,2013-02-15 11:56:00
7:43 AM,35.6,35.6,100,30.02,0.8,SSW,5.8,-,N/A,,Mist,210,2013-02-15 12:43:00
7:51 AM,37.4,37.4,100,30.02,1.2,SSW,5.8,-,N/A,,Scattered Clouds,210,2013-02-15 12:51:00
7:56 AM,37.0,37.0,100,30.02,1.5,SSW,5.8,-,N/A,,Scattered Clouds,200,2013-02-15 12:56:00
8:10 AM,37.4,37.4,100,30.03,1.5,SSW,9.2,-,N/A,,Mostly Cloudy,200,2013-02-15 13:10:00
8:18 AM,37.4,37.4,100,30.04,1.5,SSW,10.4,-,N/A,,Partly Cloudy,200,2013-02-15 13:18:00
8:54 AM,39.2,39.2,100,30.04,2.0,SSW,8.1,-,N/A,,Clear,200,2013-02-15 13:54:00
8:56 AM,39.0,39.0,100,30.04,2.0,SSW,8.1,-,N/A,,Clear,200,2013-02-15 13:56:00
9:56 AM,39.9,39.0,97,30.04,2.5,South,5.8,-,N/A,,Clear,170,2013-02-15 14:56:00
10:18 AM,41.0,39.2,93,30.04,3.0,South,4.6,-,N/A,,Clear,170,2013-02-15 15:18:00
10:56 AM,42.1,39.0,89,30.03,5.0,South,3.5,-,N/A,,Clear,180,2013-02-15 15:56:00
11:56 AM,43.0,37.9,82,30.00,6.0,South,4.6,-,N/A,,Haze,190,2013-02-15 16:56:00
12:56 PM,43.0,39.9,89,29.98,6.0,SSW,9.2,-,N/A,,Clear,210,2013-02-15 17:56:00
1:56 PM,45.0,37.9,76,29.97,7.0,SW,16.1,-,N/A,,Clear,230,2013-02-15 18:56:00
2:56 PM,44.1,39.9,85,29.96,7.0,SW,8.1,-,N/A,,Clear,220,2013-02-15 19:56:00
3:56 PM,43.0,39.0,86,29.94,7.0,SSW,8.1,-,N/A,,Clear,210,2013-02-15 20:56:00
4:56 PM,41.0,39.0,93,29.95,7.0,SW,6.9,-,N/A,,Clear,220,2013-02-15 21:56:00
6:56 PM,37.0,37.0,100,29.96,6.0,SW,3.5,-,N/A,,Clear,230,2013-02-15 23:56:00
7:56 PM,34.0,34.0,100,29.95,7.0,Calm,Calm,-,N/A,,Clear,0,2013-02-16 00:56:00
8:56 PM,33.1,33.1,100,29.95,7.0,NE,3.5,-,N/A,,Clear,40,2013-02-16 01:56:00
9:56 PM,30.9,30.9,100,29.95,3.0,NE,3.5,-,N/A,,Overcast,40,2013-02-16 02:56:00
10:56 PM,32.0,32.0,100,29.94,2.5,NNW,4.6,-,N/A,,Overcast,330,2013-02-16 03:56:00
11:25 PM,33.8,33.8,100,29.94,3.0,Calm,Calm,-,N/A,,Overcast,0,2013-02-16 04:25:00
11:44 PM,33.8,33.8,100,29.93,4.0,Calm,Calm,-,N/A,,Mostly Cloudy,0,2013-02-16 04:44:00
11:54 PM,33.8,33.8,100,29.93,3.0,Calm,Calm,-,N/A,,Mostly Cloudy,0,2013-02-16 04:54:00
11:56 PM,33.1,33.1,100,29.94,3.0,Calm,Calm,-,N/A,,Mostly Cloudy,0,2013-02-16 04:56:00